"Pseudo-MPEC" for P22n0fN

Created 2026 May 8 1:35:06 UT using Find_Orb

Click here for an explanation of pseudo-MPECs

 
 Astrometry: 
     P22n0fN*0C2026 05 07.37727315 50 12.681+13 12 52.97   ~57B5 21.32wXNEOCPF52
     P22n0fN 0C2026 05 07.38936015 50 15.888+13 13 44.94   ~57B5 21.40wXNEOCPF52
     P22n0fN 0C2026 05 07.40151015 50 19.069+13 14 36.61   ~57B5 21.32wXNEOCPF52
     P22n0fN 0C2026 05 07.41363315 50 22.297+13 15 28.92   ~57B5 21.35wXNEOCPF52
     P22n0fN 1C2026 05 07.47585115 50 36.409+13 19 39.76   ~57Bo 20.81GVNEOCPV06
     P22n0fN 1C2026 05 07.47687815 50 36.661+13 19 44.04   ~57Bo 20.83GVNEOCPV06
     P22n0fN 1C2026 05 07.47790515 50 36.942+13 19 48.43   ~57Bo 21.54GVNEOCPV06
     P22n0fN 1C2026 05 07.47893415 50 37.252+13 19 52.39   ~57Bo 21.59GVNEOCPV06
     P22n0fN 0C2026 05 07.49649715 50 44.059+13 21 21.71   ~57GZ 20.96GVNEOCPF52
     P22n0fN 0C2026 05 07.49730415 50 44.275+13 21 25.16   ~57GZ 20.95GVNEOCPF52

Station data:
(F52) Pan-STARRS 2, Haleakala  (N20.707382 W156.255910)  US/Hawaii.
   Observers J. Herman, T. Lowe, P. Minguez, A. Schultz, I. Smith. Measurers
   K. Chambers, T. de Boer, J. Fairlamb, H. Gao, M. Huber, C.-C. Lin, E.
   Magnier, Y. Ramanjooloo, R. Wainscoat, R. Weryk. 1.8-m Ritchey-Chrétien +
   CCD.
(V06) Catalina Sky Survey-Kuiper  (N32.416871 W110.732550)  US/Arizona.
   Measurers T. Beuden, V. F. Carvajal, D. Fay, J. B. Fazekas, D. C. Fuls, A.
   R. Gibbs, A. D. Grauer, H. Gröller, J. K. Hogan, R. A. Kowalski, S. M.
   Larson, G. J. Leonard, D. Rankin, R. L. Seaman, F. C. Shelly, K. W.
   Wierzchoś. 1.55-m reflector + CCD.

Orbital elements:  P22n0fN
   Perihelion 2026 Jun 9.311417 +/- 14.8 TT =  7:28:26.4 (JD 2461200.811417)
Epoch 2026 May  7.0 TT = JDT 2461167.5   Earth MOID: 0.1405      AutoNEOCP
M 349.591141953 +/- 4.0             (J2000 ecliptic)
n   0.312471191 +/- 0.0172          Peri.   65.354536 +/- 29
a   2.150780352 +/- 0.0789          Node   195.969805 +/- 12
e   0.49747589 +/- 0.05             Incl.    8.225825 +/- 2.8
P   3.15424                H 23.76  G  0.15   U 10.0
q 1.080818963 +/- 0.0689    Q 3.220741741 +/- 0.224
From 10 observations 2026 May 7 (2.9 hr); mean residual 0".16
Residuals in arcseconds: 
260507 F52  .05+  .03-    260507 V06  .15+  .12+    260507 F52  .02-  .03-    
260507 F52  .12+  .12+    260507 V06  .24-  .08+    260507 F52  .04+  .01-    
260507 F52  .32-  .26-    260507 V06  .21-  .15+    
260507 F52  .14+  .18+    260507 V06  .24+  .21-    

Ephemerides (geocentric):
Date (UTC) HH   RA             Dec           delta  r     elong  mag " sig PA
---- --------  ------------   ------------  ------ ------ -----  --- --------
2026 05 08 02  15 53 33.623   +14 03 13.68  .15732 1.1432 146.2 21.3 36.4  43
2026 05 08 03  15 53 45.744   +14 06 12.13  .15722 1.1430 146.1 21.3 41.5  43
2026 05 08 04  15 53 57.882   +14 09 10.65  .15712 1.1429 146.0 21.3 46.9  43
2026 05 08 05  15 54 10.037   +14 12 09.25  .15703 1.1427 146.0 21.3 52.6  43
2026 05 08 06  15 54 22.208   +14 15 07.92  .15693 1.1426 145.9 21.3 58.6  44
2026 05 08 07  15 54 34.395   +14 18 06.67  .15684 1.1424 145.9 21.3 65.0  44
2026 05 08 08  15 54 46.600   +14 21 05.49  .15675 1.1423 145.8 21.3 71.7  44
2026 05 08 09  15 54 58.821   +14 24 04.38  .15665 1.1421 145.8 21.3 78.8  44
2026 05 08 10  15 55 11.058   +14 27 03.34  .15656 1.1420 145.7 21.3 86.2  44
2026 05 08 11  15 55 23.313   +14 30 02.37  .15646 1.1418 145.6 21.3 94.0  44
2026 05 08 12  15 55 35.584   +14 33 01.47  .15637 1.1417 145.6 21.3  102  44
2026 05 08 13  15 55 47.871   +14 36 00.63  .15628 1.1415 145.5 21.3  111  44
2026 05 08 14  15 56 00.176   +14 38 59.87  .15619 1.1414 145.5 21.3  119  44
2026 05 08 15  15 56 12.497   +14 41 59.17  .15609 1.1412 145.4 21.3  129  44
2026 05 08 16  15 56 24.835   +14 44 58.53  .15600 1.1411 145.3 21.3  138  44
2026 05 08 17  15 56 37.189   +14 47 57.96  .15591 1.1409 145.3 21.3  148  44
2026 05 08 18  15 56 49.560   +14 50 57.46  .15582 1.1407 145.2 21.3  158  44
2026 05 08 19  15 57 01.948   +14 53 57.01  .15573 1.1406 145.1 21.3  169  44
2026 05 08 20  15 57 14.353   +14 56 56.63  .15564 1.1404 145.1 21.3  180  44
2026 05 08 21  15 57 26.774   +14 59 56.31  .15555 1.1403 145.0 21.3  191  44
2026 05 08 22  15 57 39.212   +15 02 56.05  .15546 1.1401 145.0 21.3  203  44
2026 05 08 23  15 57 51.667   +15 05 55.85  .15537 1.1400 144.9 21.3  215  44
2026 05 09 00  15 58 04.138   +15 08 55.70  .15528 1.1398 144.8 21.3  227  44
2026 05 09 01  15 58 16.626   +15 11 55.62  .15519 1.1397 144.8 21.3  240  44
2026 05 09 02  15 58 29.131   +15 14 55.59  .15510 1.1395 144.7 21.3  253  44
2026 05 09 03  15 58 41.653   +15 17 55.61  .15501 1.1394 144.7 21.3  267  44
2026 05 09 04  15 58 54.192   +15 20 55.69  .15493 1.1392 144.6 21.3  280  44
2026 05 09 05  15 59 06.747   +15 23 55.82  .15484 1.1391 144.5 21.3  295  44
2026 05 09 06  15 59 19.319   +15 26 56.01  .15475 1.1389 144.5 21.3  309  45
2026 05 09 07  15 59 31.908   +15 29 56.24  .15466 1.1388 144.4 21.3  324  45
2026 05 09 08  15 59 44.514   +15 32 56.53  .15458 1.1386 144.4 21.3  340  45
2026 05 09 09  15 59 57.136   +15 35 56.87  .15449 1.1385 144.3 21.3  356  45
2026 05 09 10  16 00 09.775   +15 38 57.25  .15440 1.1384 144.2 21.3  372  45
2026 05 09 11  16 00 22.431   +15 41 57.69  .15432 1.1382 144.2 21.3  388  45
2026 05 09 12  16 00 35.104   +15 44 58.17  .15423 1.1381 144.1 21.3  405  45
2026 05 09 13  16 00 47.793   +15 47 58.69  .15415 1.1379 144.1 21.3  423  45
2026 05 09 14  16 01 00.500   +15 50 59.27  .15406 1.1378 144.0 21.3  440  45
2026 05 09 15  16 01 13.223   +15 53 59.88  .15398 1.1376 143.9 21.3  458  45
2026 05 09 16  16 01 25.963   +15 57 00.54  .15389 1.1375 143.9 21.3  477  45
2026 05 09 17  16 01 38.720   +16 00 01.24  .15381 1.1373 143.8 21.3  496  45
2026 05 09 18  16 01 51.493   +16 03 01.98  .15373 1.1372 143.8 21.3  515  45
2026 05 09 19  16 02 04.284   +16 06 02.76  .15364 1.1370 143.7 21.3  535  45
2026 05 09 20  16 02 17.091   +16 09 03.58  .15356 1.1369 143.6 21.3  555  45
2026 05 09 21  16 02 29.915   +16 12 04.44  .15348 1.1367 143.6 21.3  575  45
2026 05 09 22  16 02 42.756   +16 15 05.34  .15339 1.1366 143.5 21.3  596  45
2026 05 09 23  16 02 55.613   +16 18 06.27  .15331 1.1364 143.4 21.3  618  45
2026 05 10 00  16 03 08.488   +16 21 07.24  .15323 1.1363 143.4 21.3  639  45
2026 05 10 01  16 03 21.379   +16 24 08.24  .15315 1.1361 143.3 21.3  661  45